• In Hungary
  • List of Countries
  • For 7 days
  • Water Temperature
  • Satellite Maps
  • Weather Map
  • News
  • Weather Widgets
  • user-avatar
    Login

    Hourly Weather Polko

    Today, 20 November, Monday

    Time Temperature Precipitation Wind Pressure Humidity
    00:00 +1°C° 0.4 mm 6 mps 731 mmHg 81%
    01:00 +1°C° 0.4 mm 5 mps 731 mmHg 82%
    02:00 0°C° 0.1 mm 5 mps 731 mmHg 83%
    03:00 -1°C° 0.1 mm 6 mps 731 mmHg 84%
    04:00 -2°C° 0.1 mm 6 mps 731 mmHg 84%
    05:00 -2°C° 0.4 mm 6 mps 731 mmHg 84%
    06:00 -2°C° 0.4 mm 7 mps 731 mmHg 83%
    07:00 -1°C° 0.4 mm 8 mps 732 mmHg 82%
    08:00 -1°C° 0.3 mm 8 mps 732 mmHg 81%
    09:00 -1°C° 0.3 mm 7 mps 733 mmHg 80%
    10:00 -1°C° 0.3 mm 7 mps 733 mmHg 79%
    11:00 -1°C° 0 mm 7 mps 734 mmHg 77%
    12:00 -1°C° 0 mm 7 mps 734 mmHg 75%
    13:00 -1°C° 0 mm 6 mps 734 mmHg 72%
    14:00 0°C° 0 mm 5 mps 734 mmHg 75%
    15:00 -1°C° 0 mm 4 mps 735 mmHg 77%
    16:00 0°C° 0 mm 3 mps 735 mmHg 79%
    17:00 0°C° 0.2 mm 3 mps 735 mmHg 82%
    18:00 0°C° 0.2 mm 3 mps 735 mmHg 85%
    19:00 0°C° 0.2 mm 3 mps 735 mmHg 87%
    20:00 0°C° 0.1 mm 3 mps 735 mmHg 89%
    21:00 0°C° 0.1 mm 3 mps 735 mmHg 90%
    22:00 0°C° 0.1 mm 3 mps 735 mmHg 91%
    23:00 0°C° 0 mm 3 mps 735 mmHg 91%

    Tomorrow, 21 November, Tuesday

    Time Temperature Precipitation Wind Pressure Humidity
    00:00 0°C° 0 mm 3 mps 735 mmHg 92%
    01:00 -1°C° 0 mm 3 mps 735 mmHg 93%
    02:00 -1°C° 0.1 mm 3 mps 734 mmHg 93%
    03:00 +1°C° 0.1 mm 2 mps 734 mmHg 94%
    04:00 +1°C° 0.1 mm 2 mps 734 mmHg 94%
    05:00 +1°C° 0.1 mm 2 mps 734 mmHg 94%
    06:00 +2°C° 0.1 mm 1 mps 734 mmHg 94%
    07:00 +2°C° 0.1 mm 1 mps 733 mmHg 94%
    08:00 +2°C° 0.1 mm 1 mps 733 mmHg 93%
    09:00 +3°C° 0.1 mm 1 mps 733 mmHg 92%
    10:00 +3°C° 0.1 mm 1 mps 733 mmHg 90%
    11:00 +4°C° 0 mm 1 mps 733 mmHg 89%
    12:00 +4°C° 0 mm 1 mps 733 mmHg 88%
    13:00 +4°C° 0 mm 1 mps 733 mmHg 86%
    14:00 +4°C° 0 mm 1 mps 733 mmHg 88%
    15:00 +3°C° 0 mm 1 mps 733 mmHg 90%
    16:00 +3°C° 0 mm 1 mps 733 mmHg 92%
    17:00 +2°C° 0 mm 1 mps 733 mmHg 92%
    18:00 +2°C° 0 mm 1 mps 734 mmHg 92%
    19:00 +2°C° 0 mm 1 mps 734 mmHg 92%
    20:00 +2°C° 0 mm 1 mps 734 mmHg 92%
    21:00 +2°C° 0 mm 1 mps 734 mmHg 93%
    22:00 +2°C° 0 mm 1 mps 735 mmHg 93%
    23:00 +2°C° 0 mm 1 mps 735 mmHg 93%

    Day after tomorrow, 22 November, Wednesday

    Time Temperature Precipitation Wind Pressure Humidity
    00:00 +2°C° 0 mm 1 mps 735 mmHg 93%
    01:00 +1°C° 0 mm 1 mps 735 mmHg 94%
    02:00 +1°C° 0 mm 1 mps 735 mmHg 94%
    03:00 +1°C° 0 mm 1 mps 735 mmHg 94%
    04:00 +1°C° 0 mm 1 mps 735 mmHg 94%
    05:00 -1°C° 0 mm 2 mps 736 mmHg 94%
    06:00 -1°C° 0 mm 2 mps 736 mmHg 94%
    07:00 +1°C° 0 mm 2 mps 736 mmHg 94%
    08:00 +1°C° 0 mm 2 mps 736 mmHg 93%
    09:00 +1°C° 0 mm 3 mps 736 mmHg 92%
    10:00 +2°C° 0 mm 3 mps 737 mmHg 91%
    11:00 +2°C° 0 mm 3 mps 736 mmHg 91%
    12:00 +3°C° 0 mm 3 mps 736 mmHg 91%
    13:00 +4°C° 0 mm 3 mps 736 mmHg 91%
    14:00 +3°C° 0 mm 3 mps 736 mmHg 92%
    15:00 +3°C° 0 mm 3 mps 736 mmHg 92%
    16:00 +4°C° 0 mm 2 mps 736 mmHg 93%
    17:00 +3°C° 0 mm 3 mps 736 mmHg 93%
    18:00 +3°C° 0 mm 3 mps 736 mmHg 92%
    19:00 +2°C° 0 mm 3 mps 737 mmHg 92%
    20:00 +2°C° 0 mm 3 mps 737 mmHg 92%
    21:00 +2°C° 0 mm 3 mps 737 mmHg 91%
    22:00 +2°C° 0 mm 3 mps 737 mmHg 91%
    23:00 +3°C° 0 mm 2 mps 737 mmHg 90%

    23 November, Thursday

    Time Temperature Precipitation Wind Pressure Humidity
    00:00 +3°C° 0 mm 2 mps 737 mmHg 89%
    01:00 +3°C° 0 mm 2 mps 737 mmHg 89%
    02:00 +3°C° 0 mm 2 mps 737 mmHg 88%
    03:00 +3°C° 0 mm 2 mps 737 mmHg 87%
    04:00 +1°C° 0 mm 3 mps 737 mmHg 86%
    05:00 +1°C° 0 mm 3 mps 738 mmHg 85%
    06:00 +1°C° 0 mm 3 mps 738 mmHg 84%
    07:00 +2°C° 0 mm 3 mps 738 mmHg 82%
    08:00 +3°C° 0 mm 3 mps 738 mmHg 77%
    09:00 +4°C° 0 mm 4 mps 738 mmHg 73%
    10:00 +6°C° 0 mm 4 mps 739 mmHg 68%
    11:00 +7°C° 0 mm 4 mps 739 mmHg 66%
    12:00 +8°C° 0 mm 4 mps 739 mmHg 64%
    13:00 +10°C° 0 mm 4 mps 739 mmHg 62%
    14:00 +8°C° 0 mm 4 mps 739 mmHg 66%
    15:00 +7°C° 0 mm 4 mps 739 mmHg 69%
    16:00 +6°C° 0 mm 4 mps 739 mmHg 73%
    17:00 +6°C° 0 mm 4 mps 740 mmHg 75%
    18:00 +6°C° 0 mm 4 mps 740 mmHg 76%
    19:00 +5°C° 0 mm 3 mps 740 mmHg 78%
    20:00 +5°C° 0 mm 3 mps 741 mmHg 79%
    21:00 +5°C° 0 mm 3 mps 741 mmHg 81%
    22:00 +4°C° 0 mm 3 mps 741 mmHg 83%
    23:00 +4°C° 0 mm 3 mps 741 mmHg 84%

    24 November, Friday

    Time Temperature Precipitation Wind Pressure Humidity
    00:00 +4°C° 0 mm 3 mps 742 mmHg 85%
    01:00 +4°C° 0 mm 3 mps 742 mmHg 86%
    02:00 +5°C° 0 mm 2 mps 742 mmHg 86%
    03:00 +5°C° 0 mm 2 mps 742 mmHg 86%
    04:00 +5°C° 0 mm 2 mps 742 mmHg 87%
    05:00 +4°C° 0 mm 2 mps 742 mmHg 87%
    06:00 +4°C° 0 mm 2 mps 742 mmHg 87%
    07:00 +4°C° 0 mm 2 mps 742 mmHg 87%
    08:00 +5°C° 0 mm 2 mps 742 mmHg 84%
    09:00 +7°C° 0 mm 2 mps 743 mmHg 80%
    10:00 +8°C° 0 mm 2 mps 743 mmHg 77%
    11:00 +8°C° 0 mm 2 mps 743 mmHg 75%
    12:00 +9°C° 0 mm 2 mps 743 mmHg 74%
    13:00 +10°C° 0 mm 2 mps 743 mmHg 72%
    14:00 +9°C° 0 mm 2 mps 742 mmHg 75%
    15:00 +8°C° 0 mm 2 mps 742 mmHg 79%
    16:00 +8°C° 0 mm 2 mps 742 mmHg 82%
    17:00 +7°C° 0 mm 2 mps 743 mmHg 83%
    18:00 +7°C° 0 mm 2 mps 743 mmHg 84%
    19:00 +7°C° 0 mm 2 mps 743 mmHg 86%
    20:00 +7°C° 0 mm 2 mps 743 mmHg 86%
    21:00 +7°C° 0 mm 2 mps 743 mmHg 86%
    22:00 +6°C° 0 mm 2 mps 743 mmHg 86%
    23:00 +6°C° 0 mm 2 mps 743 mmHg 86%

    25 November, Saturday

    Time Temperature Precipitation Wind Pressure Humidity
    00:00 +6°C° 0 mm 2 mps 743 mmHg 86%
    01:00 +6°C° 0 mm 2 mps 743 mmHg 86%
    02:00 +6°C° 0 mm 2 mps 743 mmHg 86%
    03:00 +6°C° 0 mm 2 mps 742 mmHg 86%
    04:00 +5°C° 0 mm 2 mps 742 mmHg 86%
    05:00 +5°C° 0 mm 2 mps 742 mmHg 86%
    06:00 +5°C° 0 mm 2 mps 742 mmHg 86%
    07:00 +5°C° 0 mm 2 mps 742 mmHg 86%
    08:00 +6°C° 0 mm 2 mps 742 mmHg 82%
    09:00 +7°C° 0 mm 2 mps 742 mmHg 78%
    10:00 +8°C° 0 mm 2 mps 742 mmHg 74%
    11:00 +9°C° 0 mm 2 mps 742 mmHg 71%
    12:00 +10°C° 0 mm 2 mps 742 mmHg 69%
    13:00 +12°C° 0 mm 2 mps 741 mmHg 67%
    14:00 +10°C° 0 mm 2 mps 741 mmHg 71%
    15:00 +8°C° 0 mm 2 mps 741 mmHg 75%
    16:00 +7°C° 0 mm 2 mps 741 mmHg 80%
    17:00 +7°C° 0 mm 2 mps 741 mmHg 80%
    18:00 +7°C° 0 mm 2 mps 741 mmHg 81%
    19:00 +6°C° 0 mm 2 mps 741 mmHg 82%
    20:00 +6°C° 0 mm 2 mps 742 mmHg 83%
    21:00 +6°C° 0 mm 2 mps 742 mmHg 84%
    22:00 +5°C° 0 mm 2 mps 742 mmHg 85%
    23:00 +5°C° 0 mm 2 mps 742 mmHg 84%
    Show more